This is the latest recevied weather packets stored in our database for station/object WA7ZVY-4. If no packets are shown the sender has not sent any weather packets the latest 10 day(s).
| Time | Temp. | Humidity | Pressure | Rain* | Wind** | Luminosity | Snow |
|---|---|---|---|---|---|---|---|
| 1777854731 | 15.56° C | 77% | 1008.4 hPa | 0 mm | - | - | - |
| 1777854687 | 15.56° C | 77% | 1008.4 hPa | 0 mm | - | - | - |
| 1777854370 | 16.11° C | 76% | 1008.4 hPa | 0 mm | - | - | - |
| 1777854117 | 16.11° C | 75% | 1008.6 hPa | 0 mm | - | - | - |
| 1777854052 | 16.11° C | 75% | 1008.6 hPa | 0 mm | - | - | - |
| 1777853810 | 16.67° C | 75% | 1008.7 hPa | 0 mm | - | - | - |
| 1777853735 | 16.67° C | 75% | 1008.6 hPa | 0 mm | - | - | - |
| 1777853503 | 16.67° C | 75% | 1008.7 hPa | 0 mm | - | - | - |
| 1777853419 | 16.67° C | 74% | 1008.7 hPa | 0 mm | - | - | - |
| 1777853196 | 16.67° C | 73% | 1008.7 hPa | 0 mm | - | - | - |
| 1777853101 | 16.67° C | 73% | 1008.8 hPa | 0 mm | - | - | - |
| 1777852889 | 16.67° C | 73% | 1008.7 hPa | 0 mm | - | - | - |
| 1777852784 | 16.67° C | 73% | 1008.7 hPa | 0 mm | - | - | - |
| 1777852582 | 16.67° C | 72% | 1008.8 hPa | 0 mm | - | - | - |
| 1777852468 | 17.22° C | 71% | 1008.8 hPa | 0 mm | - | - | - |
| 1777852274 | 17.22° C | 70% | 1008.8 hPa | 0 mm | - | - | - |
| 1777852151 | 17.78° C | 69% | 1008.8 hPa | 0 mm | - | - | - |
| 1777851968 | 17.78° C | 68% | 1008.6 hPa | 0 mm | - | - | - |
| 1777851833 | 18.33° C | 67% | 1008.6 hPa | 0 mm | - | - | - |
| 1777851661 | 18.89° C | 66% | 1008.6 hPa | 0 mm | - | - | - |
| 1777851516 | 18.89° C | 65% | 1008.5 hPa | 0 mm | - | - | - |
| 1777851353 | 19.44° C | 65% | 1008.6 hPa | 0 mm | - | - | - |
| 1777851199 | 20° C | 65% | 1008.6 hPa | 0 mm | - | - | - |
| 1777851047 | 20° C | 64% | 1008.6 hPa | 0 mm | - | - | - |
| 1777850882 | 20° C | 64% | 1008.6 hPa | 0 mm | - | - | - |
* Rain latest hour (hover to see other rain measurements)
** Current wind speed in m/s (hover to see current wind gust speed)